K5NCO Weather Reports


Display with metric or nautical units.
time (UTC)temp
F
wind
direction
speed
MPH
gust
MPH
rain 1hr
in
rain 24hr
in
rain mn
in
humidity
%
barometer
mb
20260901193818 95 97 2.0 3.0 0.00 0.00 0.00 47 1016.0
20260901193316 96 98 2.0 3.0 0.00 0.00 0.00 47 1016.4
20260901192811 95 58 1.0 1.0 0.00 0.00 0.00 47 1016.5
20260901192306 95 82 6.0 7.0 0.00 0.00 0.00 46 1016.5
20260901191803 95 80 8.0 10.0 0.00 0.00 0.00 47 1016.5
20260901191258 95 113 4.0 6.0 0.00 0.00 0.00 48 1016.5
20260901190754 95 17 2.0 3.0 0.00 0.00 0.00 47 1016.5
20260901190253 96 89 2.0 3.0 0.00 0.00 0.00 48 1016.7
20260901185752 96 87 5.0 8.0 0.00 0.00 0.00 48 1016.7
20260901185251 94 318 1.0 2.0 0.00 0.00 0.00 48 1016.7
20260901184747 94 76 2.0 3.0 0.00 0.00 0.00 49 1016.8
20260901184242 95 78 2.0 3.0 0.00 0.00 0.00 49 1017.0
20260901183738 93 161 5.0 7.0 0.00 0.00 0.00 49 1017.1
20260901183237 94 89 1.0 2.0 0.00 0.00 0.00 49 1017.2
20260901182733 93 145 3.0 4.0 0.00 0.00 0.00 48 1017.0
20260901182232 93 20 1.0 2.0 0.00 0.00 0.00 51 1017.4
20260901181727 93 36 3.0 3.0 0.00 0.00 0.00 51 1017.4
20260901181222 93 91 3.0 3.0 0.00 0.00 0.00 52 1017.6
20260901180721 93 204 1.0 2.0 0.00 0.00 0.00 51 1017.6
20260901180220 92 64 0.0 1.0 0.00 0.00 0.00 52 1017.7
20260901175719 94 69 9.0 11.0 0.00 0.00 0.00 51 1017.7
20260901175215 93 120 2.0 2.0 0.00 0.00 0.00 53 1017.8
20260901174710 93 129 5.0 7.0 0.00 0.00 0.00 51 1017.9
20260901174206 92 4 2.0 3.0 0.00 0.00 0.00 52 1018.2
20260901173701 92 123 2.0 2.0 0.00 0.00 0.00 53 1017.8
20260901173156 92 314 1.0 1.0 0.00 0.00 0.00 52 1018.1
20260901172652 91 91 1.0 1.0 0.00 0.00 0.00 53 1018.2
20260901172149 91 80 4.0 7.0 0.00 0.00 0.00 53 1018.4
20260901171643 92 64 4.0 9.0 0.00 0.00 0.00 55 1018.4
20260901171137 92 42 2.0 3.0 0.00 0.00 0.00 53 1018.3
20260901170637 92 170 2.0 3.0 0.00 0.00 0.00 54 1018.5
20260901170132 92 7 0.0 0.0 0.00 0.00 0.00 55 1018.4
20260901165631 90 28 2.0 3.0 0.00 0.00 0.00 57 1018.7
20260901165126 90 90 2.0 3.0 0.00 0.00 0.00 58 1018.8
20260901164622 92 79 3.0 3.0 0.00 0.00 0.00 55 1018.7
20260901164117 91 58 3.0 3.0 0.00 0.00 0.00 56 1018.8
20260901163613 90 129 3.0 4.0 0.00 0.00 0.00 57 1018.7
20260901163111 91 29 2.0 3.0 0.00 0.00 0.00 56 1018.5
20260901162606 89 65 5.0 7.0 0.00 0.00 0.00 58 1018.8
20260901162100 90 106 3.0 4.0 0.00 0.00 0.00 58 1018.9
20260901161559 89 268 0.0 0.0 0.00 0.00 0.00 59 1018.9
20260901161059 90 86 6.0 7.0 0.00 0.00 0.00 60 1018.7
20260901160555 90 213 1.0 2.0 0.00 0.00 0.00 60 1018.8
20260901160050 89 250 1.0 1.0 0.00 0.00 0.00 62 1018.9
20260901155549 89 356 2.0 3.0 0.00 0.00 0.00 63 1018.9
20260901155044 89 68 2.0 3.0 0.00 0.00 0.00 65 1018.9
20260901154539 88 243 1.0 1.0 0.00 0.00 0.00 64 1019.0
20260901154034 87 184 0.0 0.0 0.00 0.00 0.00 67 1018.9
20260901153528 89 85 1.0 2.0 0.00 0.00 0.00 65 1018.8
20260901153022 88 222 0.0 1.0 0.00 0.00 0.00 65 1018.9
20260901152517 87 113 0.0 1.0 0.00 0.00 0.00 67 1018.8
20260901152016 87 113 0.0 1.0 0.00 0.00 0.00 69 1018.9
20260901151512 86 269 2.0 2.0 0.00 0.00 0.00 68 1018.8
20260901151011 86 285 1.0 1.0 0.00 0.00 0.00 71 1018.7
20260901150509 85 234 2.0 2.0 0.00 0.00 0.00 72 1018.8
20260901150008 85 337 0.0 0.0 0.00 0.00 0.00 73 1018.7
20260901145501 85 312 2.0 3.0 0.00 0.00 0.00 74 1018.7
20260901145001 84 144 2.0 3.0 0.00 0.00 0.00 73 1018.8
20260901144456 84 261 2.0 2.0 0.00 0.00 0.00 76 1019.0
20260901143951 85 258 2.0 2.0 0.00 0.00 0.00 74 1019.0
20260901143447 84 235 2.0 2.0 0.00 0.00 0.00 77 1019.0
20260901142944 83 311 2.0 3.0 0.00 0.00 0.00 78 1019.1
20260901142438 83 291 4.0 4.0 0.00 0.00 0.00 79 1019.0
20260901141933 82 289 3.0 3.0 0.00 0.00 0.00 79 1019.2
20260901141427 82 235 0.0 1.0 0.00 0.00 0.00 80 1019.1
20260901140922 82 257 1.0 2.0 0.00 0.00 0.00 80 1019.2
20260901140420 82 275 2.0 2.0 0.00 0.00 0.00 80 1019.4
20260901135914 82 260 4.0 4.0 0.00 0.00 0.00 81 1019.2
20260901135409 82 260 2.0 2.0 0.00 0.00 0.00 81 1019.2
20260901134905 83 290 2.0 3.0 0.00 0.00 0.00 80 1019.2
20260901134400 84 11 0.0 0.0 0.00 0.00 0.00 78 1019.3
20260901133854 84 11 0.0 0.0 0.00 0.00 0.00 78 1019.2
20260901133354 82 319 0.0 0.0 0.00 0.00 0.00 81 1019.1
20260901132853 83 76 0.0 0.0 0.00 0.00 0.00 79 1019.1
20260901132348 83 76 0.0 0.0 0.00 0.00 0.00 80 1019.0
20260901131847 82 77 0.0 0.0 0.00 0.00 0.00 82 1019.0
20260901131346 81 320 0.0 0.0 0.00 0.00 0.00 84 1019.0
20260901130842 80 149 1.0 1.0 0.00 0.00 0.00 85 1018.8
20260901130337 80 192 0.0 0.0 0.00 0.00 0.00 85 1018.8
20260901125835 79 154 1.0 2.0 0.00 0.00 0.00 86 1018.5
20260901125334 79 207 0.0 0.0 0.00 0.00 0.00 87 1018.7
20260901124829 78 207 0.0 0.0 0.00 0.00 0.00 88 1018.6
20260901124324 78 207 0.0 0.0 0.00 0.00 0.00 88 1018.3
20260901123824 78 207 0.0 0.0 0.00 0.00 0.00 89 1018.5
20260901123319 78 206 0.0 0.0 0.00 0.00 0.00 89 1018.5
20260901122817 78 201 0.0 0.0 0.00 0.00 0.00 90 1018.4
20260901122312 77 221 0.0 0.0 0.00 0.00 0.00 90 1018.3
20260901121811 77 221 0.0 0.0 0.00 0.00 0.00 90 1018.2
20260901121307 77 221 0.0 0.0 0.00 0.00 0.00 90 1017.9
20260901120806 78 226 0.0 0.0 0.00 0.00 0.00 90 1018.1
20260901120301 77 222 0.0 1.0 0.00 0.00 0.00 90 1017.9
20260901115757 78 247 0.0 0.0 0.00 0.00 0.00 90 1018.1
20260901115252 78 229 0.0 1.0 0.00 0.00 0.00 89 1017.9
20260901114749 78 237 1.0 1.0 0.00 0.00 0.00 89 1018.1
20260901114245 78 206 1.0 1.0 0.00 0.00 0.00 89 1018.3
20260901113742 78 196 1.0 1.0 0.00 0.00 0.00 89 1018.1
20260901113237 78 236 0.0 1.0 0.00 0.00 0.00 89 1018.1
20260901112732 78 198 1.0 1.0 0.00 0.00 0.00 88 1018.2
20260901112232 78 189 1.0 1.0 0.00 0.00 0.00 88 1018.2
20260901111727 78 191 2.0 2.0 0.00 0.00 0.00 88 1018.1
20260901111226 78 234 2.0 2.0 0.00 0.00 0.00 88 1018.1
20260901110720 78 206 1.0 1.0 0.00 0.00 0.00 88 1018.3
20260901110215 78 232 1.0 1.0 0.00 0.00 0.00 88 1018.1
20260901105712 78 196 2.0 2.0 0.00 0.00 0.00 87 1017.9
20260901105211 79 201 3.0 3.0 0.00 0.00 0.00 87 1018.2
20260901104708 79 241 3.0 4.0 0.00 0.00 0.00 87 1018.1
20260901104203 79 222 3.0 3.0 0.00 0.00 0.00 87 1017.7
20260901103702 79 238 3.0 3.0 0.00 0.00 0.00 87 1017.7
20260901103157 79 184 4.0 4.0 0.00 0.00 0.00 86 1017.8
20260901102652 79 216 3.0 3.0 0.00 0.00 0.00 86 1017.7
20260901102151 79 195 1.0 2.0 0.00 0.00 0.00 86 1017.7
20260901101648 79 208 2.0 3.0 0.00 0.00 0.00 86 1017.7
20260901101146 79 227 2.0 2.0 0.00 0.00 0.00 86 1017.7
20260901100641 79 211 3.0 3.0 0.00 0.00 0.00 86 1017.8
20260901100136 79 209 3.0 3.0 0.00 0.00 0.00 86 1017.7
20260901095634 79 204 4.0 6.0 0.00 0.00 0.00 85 1017.5
20260901095132 79 225 4.0 4.0 0.00 0.00 0.00 85 1017.7
20260901094626 80 234 1.0 2.0 0.00 0.00 0.00 84 1017.8
20260901094121 80 228 1.0 1.0 0.00 0.00 0.00 84 1017.6
20260901093616 80 230 2.0 2.0 0.00 0.00 0.00 84 1017.7
20260901093115 80 210 3.0 3.0 0.00 0.00 0.00 83 1017.7
20260901092611 80 171 4.0 4.0 0.00 0.00 0.00 83 1017.9
20260901092107 80 184 3.0 4.0 0.00 0.00 0.00 83 1017.8
20260901091603 80 193 2.0 2.0 0.00 0.00 0.00 82 1017.8
20260901091058 80 181 1.0 2.0 0.00 0.00 0.00 82 1017.8
20260901090557 80 181 3.0 3.0 0.00 0.00 0.00 82 1017.8
20260901090053 80 136 3.0 3.0 0.00 0.00 0.00 81 1017.8
20260901085548 80 184 2.0 2.0 0.00 0.00 0.00 81 1017.7
20260901085044 81 174 2.0 3.0 0.00 0.00 0.00 81 1018.1
20260901084540 81 150 3.0 3.0 0.00 0.00 0.00 80 1017.7
20260901084036 81 128 2.0 2.0 0.00 0.00 0.00 80 1017.6
20260901083530 81 173 3.0 3.0 0.00 0.00 0.00 79 1017.7
20260901083028 81 179 3.0 3.0 0.00 0.00 0.00 79 1017.4
20260901082524 81 169 2.0 3.0 0.00 0.00 0.00 79 1017.8
20260901082019 81 174 3.0 3.0 0.00 0.00 0.00 78 1017.6
20260901081514 81 187 1.0 2.0 0.00 0.00 0.00 78 1017.7
20260901081008 82 107 1.0 2.0 0.00 0.00 0.00 78 1017.6
20260901080508 82 183 6.0 6.0 0.00 0.00 0.00 77 1017.8
20260901080002 82 159 2.0 3.0 0.00 0.00 0.00 77 1017.8
20260901075458 82 112 2.0 3.0 0.00 0.00 0.00 77 1017.8
20260901074956 82 131 3.0 3.0 0.00 0.00 0.00 77 1017.8
20260901074451 82 180 4.0 4.0 0.00 0.00 0.00 77 1017.7
20260901073946 82 201 3.0 4.0 0.00 0.00 0.00 76 1017.9
20260901073443 82 137 5.0 6.0 0.00 0.00 0.00 76 1017.9
20260901072943 82 157 3.0 3.0 0.00 0.00 0.00 75 1017.7
20260901072438 82 127 2.0 2.0 0.00 0.00 0.00 74 1017.7
20260901071933 82 97 1.0 2.0 0.00 0.00 0.00 74 1018.1
20260901071432 82 140 1.0 1.0 0.00 0.00 0.00 73 1018.1
20260901070932 83 165 3.0 3.0 0.00 0.00 0.00 73 1017.8
20260901070427 83 179 3.0 3.0 0.00 0.00 0.00 73 1017.9
20260901065926 82 191 5.0 8.0 0.00 0.00 0.00 73 1017.8
20260901065422 83 98 1.0 2.0 0.00 0.00 0.00 73 1017.6
20260901064916 83 166 5.0 7.0 0.00 0.00 0.00 73 1017.9
20260901064413 83 155 5.0 7.0 0.00 0.00 0.00 74 1017.6
20260901063910 83 138 2.0 3.0 0.00 0.00 0.00 74 1017.7
20260901063406 83 162 4.0 7.0 0.00 0.00 0.00 74 1017.6
20260901062856 83 148 3.0 4.0 0.00 0.00 0.00 74 1017.7
20260901062352 83 118 3.0 3.0 0.00 0.00 0.00 74 1017.7
20260901061847 83 159 9.0 10.0 0.00 0.00 0.00 73 1017.5
20260901061342 83 83 4.0 4.0 0.00 0.00 0.00 73 1017.5
20260901060832 83 170 7.0 9.0 0.00 0.00 0.00 72 1017.5
20260901060328 83 148 4.0 4.0 0.00 0.00 0.00 72 1017.5
20260901055827 84 163 2.0 3.0 0.00 0.00 0.00 71 1017.4
20260901055324 84 151 3.0 4.0 0.00 0.00 0.00 71 1017.6
20260901054820 84 169 5.0 8.0 0.00 0.00 0.00 70 1017.5
20260901054317 84 184 6.0 8.0 0.00 0.00 0.00 69 1017.6
20260901053813 84 150 6.0 7.0 0.00 0.00 0.00 69 1017.4
20260901053307 84 142 6.0 9.0 0.00 0.00 0.00 68 1017.4
20260901052757 84 111 4.0 6.0 0.00 0.00 0.00 68 1017.5
20260901052253 84 127 3.0 4.0 0.00 0.00 0.00 68 1017.2
20260901051751 84 164 5.0 7.0 0.00 0.00 0.00 67 1017.3
20260901051246 85 136 6.0 7.0 0.00 0.00 0.00 67 1017.2
20260901050742 85 132 6.0 8.0 0.00 0.00 0.00 67 1017.2
20260901050237 85 186 3.0 4.0 0.00 0.00 0.00 66 1017.1
20260901045732 85 108 4.0 6.0 0.00 0.00 0.00 66 1016.9
20260901045227 85 173 4.0 6.0 0.00 0.00 0.00 66 1017.1
20260901044722 85 199 2.0 3.0 0.00 0.00 0.00 66 1017.0
20260901044219 85 105 6.0 7.0 0.00 0.00 0.00 65 1017.1
20260901043714 86 146 3.0 7.0 0.00 0.00 0.00 65 1017.1
20260901043209 86 159 2.0 3.0 0.00 0.00 0.00 65 1017.1
20260901042709 86 209 7.0 9.0 0.00 0.00 0.00 64 1017.0
20260901042203 86 212 2.0 3.0 0.00 0.00 0.00 64 1017.0
20260901041659 86 116 7.0 8.0 0.00 0.00 0.00 63 1016.8
20260901041158 86 116 9.0 10.0 0.00 0.00 0.00 63 1016.8
20260901040654 86 74 6.0 8.0 0.00 0.00 0.00 62 1016.8
20260901040147 86 113 5.0 8.0 0.00 0.00 0.00 61 1017.0
20260901035646 87 139 8.0 8.0 0.00 0.00 0.00 61 1016.8
20260901035144 87 139 4.0 6.0 0.00 0.00 0.00 60 1016.9
20260901034638 87 119 7.0 9.0 0.00 0.00 0.00 60 1016.8
20260901034133 87 112 5.0 9.0 0.00 0.00 0.00 59 1016.9
20260901033632 87 146 10.0 11.0 0.00 0.00 0.00 59 1017.2
20260901033132 87 139 6.0 8.0 0.00 0.00 0.00 58 1016.8
20260901032630 87 133 7.0 9.0 0.00 0.00 0.00 58 1016.9
20260901032126 88 67 7.0 10.0 0.00 0.00 0.00 57 1016.7
20260901031621 88 114 8.0 11.0 0.00 0.00 0.00 56 1016.8
20260901031117 88 115 3.0 4.0 0.00 0.00 0.00 56 1016.7
20260901030617 89 149 9.0 14.0 0.00 0.00 0.00 54 1016.5
20260901030112 89 116 6.0 8.0 0.00 0.00 0.00 53 1016.6
20260901025606 89 62 5.0 8.0 0.00 0.00 0.00 51 1016.4
20260901025101 89 100 3.0 4.0 0.00 0.00 0.00 50 1016.4
20260901024555 90 137 5.0 7.0 0.00 0.00 0.00 48 1016.3
20260901024054 90 110 5.0 6.0 0.00 0.00 0.00 47 1016.1
20260901023553 90 153 4.0 4.0 0.00 0.00 0.00 46 1016.1
20260901023048 90 84 3.0 3.0 0.00 0.00 0.00 45 1015.9
20260901022543 90 121 4.0 6.0 0.00 0.00 0.00 45 1015.9
20260901022039 90 78 2.0 3.0 0.00 0.00 0.00 45 1015.9
20260901021534 90 68 5.0 6.0 0.00 0.00 0.00 44 1015.8
20260901021030 90 81 2.0 3.0 0.00 0.00 0.00 44 1015.8
20260901020525 91 80 4.0 4.0 0.00 0.00 0.00 44 1015.6
20260901020020 91 113 1.0 2.0 0.00 0.00 0.00 44 1015.7
20260901015516 91 123 4.0 6.0 0.00 0.00 0.00 43 1015.5
20260901015015 91 106 2.0 2.0 0.00 0.00 0.00 44 1015.6
20260901014511 91 100 3.0 3.0 0.00 0.00 0.00 43 1015.3
20260901014007 91 84 1.0 2.0 0.00 0.00 0.00 44 1015.3
20260901013502 92 94 3.0 4.0 0.00 0.00 0.00 43 1015.4
20260901012958 92 85 2.0 2.0 0.00 0.00 0.00 43 1015.5
20260901012457 92 49 0.0 0.0 0.00 0.00 0.00 43 1015.4
20260901011953 92 70 4.0 6.0 0.00 0.00 0.00 42 1015.4
20260901011449 92 69 3.0 4.0 0.00 0.00 0.00 43 1015.3
20260901010946 92 67 2.0 3.0 0.00 0.00 0.00 43 1015.0
20260901010442 93 72 2.0 3.0 0.00 0.00 0.00 42 1015.2
20260901005941 93 74 1.0 1.0 0.00 0.00 0.00 42 1015.2
20260901005436 93 94 2.0 2.0 0.00 0.00 0.00 41 1015.1
20260901004931 94 109 3.0 4.0 0.00 0.00 0.00 40 1015.2
20260901004430 94 72 2.0 3.0 0.00 0.00 0.00 40 1015.1
20260901003925 94 72 4.0 4.0 0.00 0.00 0.00 39 1015.1
20260901003420 95 78 4.0 4.0 0.00 0.00 0.00 39 1015.2
20260901002918 95 115 3.0 3.0 0.00 0.00 0.00 39 1015.0
20260901002413 95 82 4.0 6.0 0.00 0.00 0.00 38 1015.1
20260901001908 95 131 4.0 7.0 0.00 0.00 0.00 39 1015.1
20260901001403 95 101 3.0 3.0 0.00 0.00 0.00 39 1015.0
20260901000858 95 105 4.0 4.0 0.00 0.00 0.00 39 1015.1
20260901000353 95 108 4.0 6.0 0.00 0.00 0.00 39 1015.1
20260831235851 95 52 9.0 10.0 0.00 0.00 0.00 38 1015.0
20260831235348 95 92 4.0 6.0 0.00 0.00 0.00 38 1014.9
20260831234842 95 89 7.0 8.0 0.00 0.00 0.00 38 1014.9
20260831234337 95 80 4.0 9.0 0.00 0.00 0.00 38 1014.9
20260831233832 95 77 5.0 6.0 0.00 0.00 0.00 38 1014.8
20260831233327 95 59 4.0 6.0 0.00 0.00 0.00 38 1014.9
20260831232823 95 76 8.0 11.0 0.00 0.00 0.00 38 1014.9
20260831232319 96 66 4.0 6.0 0.00 0.00 0.00 39 1015.0
20260831231815 96 89 6.0 8.0 0.00 0.00 0.00 38 1014.9
20260831231311 96 56 9.0 10.0 0.00 0.00 0.00 38 1014.9
20260831230806 96 49 4.0 6.0 0.00 0.00 0.00 39 1015.1
20260831230301 96 76 4.0 4.0 0.00 0.00 0.00 38 1015.0
20260831225800 96 94 7.0 8.0 0.00 0.00 0.00 38 1015.0
20260831225255 97 102 8.0 11.0 0.00 0.00 0.00 39 1015.0
20260831224751 97 32 3.0 4.0 0.00 0.00 0.00 39 1014.9
20260831224246 97 156 4.0 4.0 0.00 0.00 0.00 38 1015.0
20260831223741 97 123 3.0 6.0 0.00 0.00 0.00 38 1015.2
20260831223237 98 42 4.0 4.0 0.00 0.00 0.00 37 1015.2
20260831222733 97 108 6.0 8.0 0.00 0.00 0.00 36 1015.2
20260831222228 97 129 5.0 7.0 0.00 0.00 0.00 36 1015.3
20260831221724 97 147 8.0 13.0 0.00 0.00 0.00 36 1015.1
20260831221219 97 118 2.0 3.0 0.00 0.00 0.00 38 1015.2
20260831220714 97 236 3.0 3.0 0.00 0.00 0.00 38 1015.2
20260831220209 96 185 1.0 2.0 0.00 0.00 0.00 38 1015.2
20260831215704 96 175 4.0 4.0 0.00 0.00 0.00 38 1015.4
20260831215200 97 130 3.0 4.0 0.00 0.00 0.00 38 1015.5
20260831214657 95 118 2.0 3.0 0.00 0.00 0.00 40 1015.6
20260831214154 95 120 4.0 7.0 0.00 0.00 0.00 40 1015.6
20260831213649 96 191 2.0 3.0 0.00 0.00 0.00 40 1015.6
20260831213145 96 116 8.0 10.0 0.00 0.00 0.00 40 1015.7
20260831212640 96 56 3.0 6.0 0.00 0.00 0.00 42 1015.7
20260831212137 96 156 4.0 4.0 0.00 0.00 0.00 40 1015.7
20260831211635 96 66 7.0 10.0 0.00 0.00 0.00 39 1015.8
20260831211130 96 191 6.0 7.0 0.00 0.00 0.00 41 1016.0
20260831210625 95 150 4.0 6.0 0.00 0.00 0.00 42 1016.2
20260831210121 95 147 3.0 4.0 0.00 0.00 0.00 42 1016.1
20260831205620 96 101 8.0 9.0 0.00 0.00 0.00 43 1016.1
20260831205116 96 140 3.0 3.0 0.00 0.00 0.00 43 1016.1
20260831204616 96 214 4.0 4.0 0.00 0.00 0.00 41 1016.3
20260831204114 96 182 10.0 10.0 0.00 0.00 0.00 42 1016.5
20260831203609 95 126 6.0 8.0 0.00 0.00 0.00 42 1016.7
20260831203108 94 173 4.0 4.0 0.00 0.00 0.00 45 1016.8
20260831202608 94 90 4.0 4.0 0.00 0.00 0.00 47 1016.6
20260831202107 95 102 2.0 3.0 0.00 0.00 0.00 46 1016.8
20260831201606 96 216 2.0 3.0 0.00 0.00 0.00 43 1016.9
20260831201101 94 150 4.0 6.0 0.00 0.00 0.00 45 1016.8
20260831200557 93 98 3.0 3.0 0.00 0.00 0.00 48 1017.0
20260831200052 93 145 7.0 8.0 0.00 0.00 0.00 47 1017.0
20260831195548 93 36 4.0 6.0 0.00 0.00 0.00 48 1017.2
20260831195043 93 157 2.0 3.0 0.00 0.00 0.00 47 1017.2
20260831194538 95 196 2.0 3.0 0.00 0.00 0.00 46 1017.2